OKEAN-0
1 25860U 99039A 12103.89680973 .00000431 00000-0 72870-4 0 5989
2 25860 097.9298 067.9048 0001884 082.5250 277.6173 14.74146973684955
NOAA-16
1 26536U 00055A 12102.81703747 .00000147 00000-0 10422-3 0 07043
2 26536 099.1010 143.8925 0009753 270.2296 089.7750 14.12722485595661
NOAA-17
1 27453U 02032A 12102.71261553 -.00000012 00000-0 12649-4 0 06665
2 27453 098.3417 133.0899 0011559 356.7844 003.3262 14.24413759509297
NOAA-18
1 28654U 05018A 12102.79434111 .00000400 00000-0 24498-3 0 01429
2 28654 099.0407 060.3529 0014137 345.1666 014.9097 14.11631881355195
NOAA-19
1 33591U 09005A 12102.78731364 .00000054 00000-0 53898-4 0 03338
2 33591 098.8604 043.4154 0013520 206.1366 153.9120 14.11319003163648
HUBBLE
1 20580U 90037B 12101.50189587 .00001554 00000-0 10217-3 0 9799
2 20580 028.4695 226.4333 0003291 062.4900 297.5817 15.02358714 4548
ISS
1 25544U 98067A 12103.85539831 .00011250 00000-0 15221-3 0 3637
2 25544 051.6428 089.3775 0007675 268.0021 165.7065 15.58228172767833
CO-58
1 28895U 05043F 12103.59143758 .00000596 00000-0 13174-3 0 1477
2 28895 097.9221 332.7172 0017594 002.2090 357.9209 14.60557042344086
FALCON
1 30776U 07006E 12103.88016056 .00003413 00000-0 22561-3 0 3227
2 30776 035.4339 315.5930 0001008 207.8364 152.2291 15.07059744280393
MAST
1 31126U 07012K 12103.57748710 .00000393 00000-0 98204-4 0 4312
2 31126 097.8758 118.5128 0093526 315.9298 043.4465 14.54099467264734
CAPE1
1 31130U 07012P 12103.69577526 .00000491 00000-0 12226-3 0 4425
2 31130 097.8861 115.0482 0100857 328.3373 031.1766 14.52858175264260
COMPASS
1 32787U 08021E 12103.59243903 .00001092 00000-0 13828-3 0 2743
2 32787 097.8050 166.3714 0014194 276.7848 083.1753 14.83728677214082
AAUSAT2
1 32788U 08021F 12102.63189380 .00001432 00000-0 17801-3 0 02659
2 32788 097.8054 165.7774 0013523 279.5836 080.3795 14.84027489213964
DO-64
1 32789U 08021G 12102.74213176 .00002632 00000-0 31193-3 0 02825
2 32789 097.8183 167.6661 0013504 275.0168 084.9500 14.85324815214017
CO-66
1 32791U 08021J 12102.61275961 .00001548 00000-0 19568-3 0 02685
2 32791 097.8053 165.2045 0014597 278.9988 080.9600 14.83196120213875
RS-30
1 32953U 08025A 12103.61154859 .00000010 00000-0 00000 0 0 6923
2 32953 082.5050 335.9256 0019733 089.9099 270.4251 12.43022245176419
TACSAT-3
1 35001U 09028A 12103.44846577 .00304504 41910-4 77950-3 0 9435
2 35001 040.4413 112.7092 0012523 134.7050 225.4807 15.94299744164050
PHARMSAT
1 35002U 09028B 12102.49245219 .00056073 00000-0 41617-3 0 08678
2 35002 040.4676 130.3740 0000802 010.7052 349.3789 15.71932142163785
METEOR-M
1 35865U 09049A 12103.70502722 -.00000017 00000-0 11864-4 0 3167
2 35865 098.6611 159.2372 0001670 235.9209 124.1812 14.21859123133296
RS-38
1 35869U 09049E 12103.87642946 .00000055 00000-0 44319-4 0 3276
2 35869 098.6572 159.4116 0003824 238.0969 121.9828 14.22063482133337
JUGNU
1 37839U 11058B 12102.88603950 .00000620 00000-0 19019-3 0 01296
2 37839 019.9612 039.8958 0018564 212.0137 147.9174 14.12042054025869
SRMSAT
1 37841U 11058D 12102.92118976 .00000264 00000-0 00000-0 0 01283
2 37841 019.9726 043.2536 0012544 184.6347 175.3972 14.10128488025830
RAX-2
1 37853U 11061D 12102.98905141 .00002000 00000-0 16891-3 0 01619
2 37853 101.7192 113.0639 0249456 179.5200 180.6290 14.79337826024615
AUBIESAT
1 37854U 11061E 12102.95988829 .00002574 00000-0 21026-3 0 01602
2 37854 101.7193 113.1866 0251390 178.9676 181.2093 14.79676315024594
HRBE
1 37855U 11061F 12102.96770779 .00002161 00000-0 17873-3 0 01615
2 37855 101.7200 113.1699 0251757 179.0082 181.1675 14.79558043024590
RS-39
1 38051U 11062C 12103.54867499 .00005053 00000-0 22473-3 0 2397
2 38051 051.6344 112.3794 0010599 157.9305 346.1198 15.23146128 11965
E-STAR
1 38079U 12006C 12103.39895173 .00047610 00000-0 11708-2 0 1436
2 38079 069.4932 105.5892 0765869 330.6148 025.3929 14.10092465 8299
GOLIAT
1 38085U 12006J 12103.41967040 .00043814 00000-0 11240-2 0 1397
2 38085 069.4891 105.6217 0765063 330.6244 025.3881 14.09414623 8294
